Time,TemperatureF,DewpointF,PressureIn,WindDirection,WindDirectionDegrees,WindSpeedMPH,WindSpeedGustMPH,Humidity,HourlyPrecipIn,Conditions,Clouds,dailyrainin,SoftwareType,DateUTC
2013-02-10 00:02:00,30.0,-99.9,30.06,SSE,166,7.0,12.0,-999,-99.99,,,-99.99,,2013-02-10 06:02:00,
2013-02-10 00:11:00,30.0,-99.9,30.06,SSE,166,7.0,12.0,-999,-99.99,,,-99.99,,2013-02-10 06:11:00,
2013-02-10 00:21:00,31.0,-99.9,30.06,SE,141,7.0,14.0,-999,-99.99,,,-99.99,,2013-02-10 06:21:00,
2013-02-10 00:32:00,31.0,-99.9,30.06,SE,143,8.0,10.0,-999,-99.99,,,-99.99,,2013-02-10 06:32:00,
2013-02-10 00:42:00,31.0,-99.9,30.06,SE,143,8.0,10.0,-999,-99.99,,,-99.99,,2013-02-10 06:42:00,
2013-02-10 00:52:00,30.0,-99.9,30.05,South,174,7.0,12.0,-999,-99.99,,,-99.99,,2013-02-10 06:52:00,
2013-02-10 01:01:00,30.0,-99.9,30.05,SSE,160,7.0,13.0,-999,-99.99,,,-99.99,,2013-02-10 07:01:00,
2013-02-10 01:11:00,30.0,-99.9,30.05,SSE,160,7.0,13.0,-999,-99.99,,,-99.99,,2013-02-10 07:11:00,
2013-02-10 01:21:00,30.0,-99.9,30.05,SSE,166,5.0,10.0,-999,-99.99,,,-99.99,,2013-02-10 07:21:00,
2013-02-10 01:32:00,30.0,-99.9,30.06,SE,132,4.0,10.0,-999,-99.99,,,-99.99,,2013-02-10 07:32:00,
2013-02-10 01:42:00,30.0,-99.9,30.06,SE,132,4.0,10.0,-999,-99.99,,,-99.99,,2013-02-10 07:42:00,
2013-02-10 01:52:00,30.0,-99.9,30.05,SE,138,4.0,9.0,-999,-99.99,,,-99.99,,2013-02-10 07:52:00,
2013-02-10 02:01:00,30.0,-99.9,30.06,SE,144,4.0,11.0,-999,-99.99,,,-99.99,,2013-02-10 08:01:00,
2013-02-10 02:11:00,30.0,-99.9,30.06,SE,144,4.0,11.0,-999,-99.99,,,-99.99,,2013-02-10 08:11:00,
2013-02-10 02:21:00,30.0,-99.9,30.06,SSE,151,4.0,8.0,-999,-99.99,,,-99.99,,2013-02-10 08:21:00,
2013-02-10 02:32:00,30.0,-99.9,30.06,SSE,161,3.0,10.0,-999,-99.99,,,-99.99,,2013-02-10 08:32:00,
2013-02-10 02:43:00,30.0,-99.9,30.06,SSE,161,3.0,10.0,-999,-99.99,,,-99.99,,2013-02-10 08:43:00,
2013-02-10 02:52:00,30.0,-99.9,30.04,SE,142,3.0,8.0,-999,-99.99,,,-99.99,,2013-02-10 08:52:00,
2013-02-10 03:02:00,30.0,-99.9,30.04,SSE,153,5.0,13.0,-999,-99.99,,,-99.99,,2013-02-10 09:02:00,
2013-02-10 03:11:00,30.0,-99.9,30.04,SSE,153,5.0,13.0,-999,-99.99,,,-99.99,,2013-02-10 09:11:00,
2013-02-10 03:21:00,30.0,-99.9,30.03,SSE,150,4.0,15.0,-999,-99.99,,,-99.99,,2013-02-10 09:21:00,
2013-02-10 03:32:00,31.0,-99.9,30.02,SSE,149,2.0,9.0,-999,-99.99,,,-99.99,,2013-02-10 09:32:00,
2013-02-10 03:42:00,31.0,-99.9,30.02,SSE,149,2.0,9.0,-999,-99.99,,,-99.99,,2013-02-10 09:42:00,
2013-02-10 03:52:00,31.0,-99.9,30.02,South,169,4.0,10.0,-999,-99.99,,,-99.99,,2013-02-10 09:52:00,
2013-02-10 04:01:00,31.0,-99.9,30.02,SSE,153,4.0,8.0,-999,-99.99,,,-99.99,,2013-02-10 10:01:00,
2013-02-10 04:11:00,31.0,-99.9,30.01,ESE,116,5.0,12.0,-999,-99.99,,,-99.99,,2013-02-10 10:11:00,
2013-02-10 04:21:00,31.0,-99.9,30.01,ESE,116,5.0,12.0,-999,-99.99,,,-99.99,,2013-02-10 10:21:00,
2013-02-10 04:32:00,31.0,-99.9,30.01,SE,135,4.0,10.0,-999,-99.99,,,-99.99,,2013-02-10 10:32:00,
2013-02-10 04:42:00,31.0,-99.9,30.01,SE,135,4.0,10.0,-999,-99.99,,,-99.99,,2013-02-10 10:42:00,
2013-02-10 04:52:00,31.0,-99.9,29.99,SSE,164,4.0,10.0,-999,-99.99,,,-99.99,,2013-02-10 10:52:00,
2013-02-10 05:01:00,32.0,-99.9,29.98,ESE,121,5.0,10.0,-999,-99.99,,,-99.99,,2013-02-10 11:01:00,
2013-02-10 05:11:00,32.0,-99.9,29.98,ESE,121,5.0,10.0,-999,-99.99,,,-99.99,,2013-02-10 11:11:00,
2013-02-10 05:22:00,32.0,-99.9,29.98,SE,132,7.0,16.0,-999,-99.99,,,-99.99,,2013-02-10 11:22:00,
2013-02-10 05:32:00,32.0,-99.9,29.98,SSE,150,8.0,12.0,-999,-99.99,,,-99.99,,2013-02-10 11:32:00,
2013-02-10 05:42:00,32.0,-99.9,29.98,SSE,150,8.0,12.0,-999,-99.99,,,-99.99,,2013-02-10 11:42:00,
2013-02-10 05:52:00,32.0,-99.9,29.98,SSE,153,5.0,8.0,-999,-99.99,,,-99.99,,2013-02-10 11:52:00,
2013-02-10 06:02:00,32.0,-99.9,29.98,SE,136,5.0,9.0,-999,-99.99,,,-99.99,,2013-02-10 12:02:00,
2013-02-10 06:12:00,32.0,-99.9,29.97,SE,146,3.0,12.0,-999,-99.99,,,-99.99,,2013-02-10 12:12:00,
2013-02-10 06:22:00,32.0,-99.9,29.97,SE,146,3.0,12.0,-999,-99.99,,,-99.99,,2013-02-10 12:22:00,
2013-02-10 06:32:00,32.0,-99.9,29.97,SSE,154,3.0,10.0,-999,-99.99,,,-99.99,,2013-02-10 12:32:00,
2013-02-10 06:42:00,32.0,-99.9,29.97,SSE,154,3.0,10.0,-999,-99.99,,,-99.99,,2013-02-10 12:42:00,
2013-02-10 06:52:00,33.0,-99.9,29.96,SE,140,5.0,10.0,-999,-99.99,,,-99.99,,2013-02-10 12:52:00,
2013-02-10 07:02:00,33.0,-99.9,29.96,SE,144,5.0,10.0,-999,-99.99,,,-99.99,,2013-02-10 13:02:00,
2013-02-10 07:12:00,33.0,-99.9,29.96,SE,144,5.0,10.0,-999,-99.99,,,-99.99,,2013-02-10 13:12:00,
2013-02-10 07:21:00,33.0,-99.9,29.95,SE,125,6.0,10.0,-999,-99.99,,,-99.99,,2013-02-10 13:21:00,
2013-02-10 07:32:00,33.0,-99.9,29.95,SE,143,5.0,13.0,-999,-99.99,,,-99.99,,2013-02-10 13:32:00,
2013-02-10 07:42:00,33.0,-99.9,29.95,SE,143,5.0,13.0,-999,-99.99,,,-99.99,,2013-02-10 13:42:00,
2013-02-10 07:52:00,33.0,-99.9,29.93,SSE,156,5.0,12.0,-999,-99.99,,,-99.99,,2013-02-10 13:52:00,
2013-02-10 08:02:00,33.0,-99.9,29.92,SSE,160,5.0,9.0,-999,-99.99,,,-99.99,,2013-02-10 14:02:00,
2013-02-10 08:11:00,33.0,-99.9,29.92,SSE,160,5.0,9.0,-999,-99.99,,,-99.99,,2013-02-10 14:11:00,
2013-02-10 08:22:00,33.0,-99.9,29.92,SSE,160,5.0,9.0,-999,-99.99,,,-99.99,,2013-02-10 14:22:00,
2013-02-10 08:32:00,33.0,-99.9,29.92,SSE,160,5.0,9.0,-999,-99.99,,,-99.99,,2013-02-10 14:32:00,
2013-02-10 08:42:00,33.0,-99.9,29.92,SSE,160,5.0,9.0,-999,-99.99,,,-99.99,,2013-02-10 14:42:00,
2013-02-10 08:52:00,34.0,-99.9,29.93,SSE,149,4.0,10.0,-999,-99.99,,,-99.99,,2013-02-10 14:52:00,
2013-02-10 09:02:00,34.0,-99.9,29.93,SSE,149,4.0,10.0,-999,-99.99,,,-99.99,,2013-02-10 15:02:00,
2013-02-10 09:12:00,34.0,-99.9,29.93,SSE,149,4.0,10.0,-999,-99.99,,,-99.99,,2013-02-10 15:12:00,
2013-02-10 09:22:00,34.0,-99.9,29.91,SSE,160,7.0,17.0,-999,-99.99,,,-99.99,,2013-02-10 15:22:00,
2013-02-10 09:32:00,34.0,-99.9,29.90,SSE,147,6.0,12.0,-999,-99.99,,,-99.99,,2013-02-10 15:32:00,
2013-02-10 09:42:00,34.0,-99.9,29.90,SSE,147,6.0,12.0,-999,-99.99,,,-99.99,,2013-02-10 15:42:00,
2013-02-10 09:52:00,35.0,-99.9,29.90,SE,138,5.0,16.0,-999,-99.99,,,-99.99,,2013-02-10 15:52:00,
2013-02-10 10:02:00,35.0,-99.9,29.90,SE,138,5.0,16.0,-999,-99.99,,,-99.99,,2013-02-10 16:02:00,
2013-02-10 10:12:00,35.0,-99.9,29.89,SSE,155,6.0,13.0,-999,-99.99,,,-99.99,,2013-02-10 16:12:00,
2013-02-10 10:22:00,35.0,-99.9,29.89,SSE,155,6.0,13.0,-999,-99.99,,,-99.99,,2013-02-10 16:22:00,
2013-02-10 10:32:00,36.0,-99.9,29.87,SSE,154,10.0,14.0,-999,-99.99,,,-99.99,,2013-02-10 16:32:00,
2013-02-10 10:42:00,36.0,-99.9,29.85,SE,144,4.0,12.0,-999,-99.99,,,-99.99,,2013-02-10 16:42:00,
2013-02-10 10:52:00,36.0,-99.9,29.85,SE,144,4.0,12.0,-999,-99.99,,,-99.99,,2013-02-10 16:52:00,
2013-02-10 11:02:00,36.0,-99.9,29.84,SSE,154,5.0,14.0,-999,-99.99,,,-99.99,,2013-02-10 17:02:00,
2013-02-10 11:12:00,37.0,-99.9,29.83,SE,133,7.0,13.0,-999,-99.99,,,-99.99,,2013-02-10 17:12:00,
2013-02-10 11:22:00,37.0,-99.9,29.83,SE,133,7.0,13.0,-999,-99.99,,,-99.99,,2013-02-10 17:22:00,
2013-02-10 11:32:00,37.0,-99.9,29.83,SE,133,7.0,13.0,-999,-99.99,,,-99.99,,2013-02-10 17:32:00,
2013-02-10 11:42:00,38.0,-99.9,29.79,SSE,151,8.0,19.0,-999,-99.99,,,-99.99,,2013-02-10 17:42:00,
2013-02-10 11:53:00,38.0,-99.9,29.79,SSE,151,8.0,19.0,-999,-99.99,,,-99.99,,2013-02-10 17:53:00,
2013-02-10 12:02:00,38.0,-99.9,29.78,SSE,149,7.0,15.0,-999,-99.99,,,-99.99,,2013-02-10 18:02:00,
2013-02-10 12:12:00,38.0,-99.9,29.77,SSE,150,7.0,14.0,-999,-99.99,,,-99.99,,2013-02-10 18:12:00,
2013-02-10 12:22:00,38.0,-99.9,29.77,SSE,150,7.0,14.0,-999,-99.99,,,-99.99,,2013-02-10 18:22:00,
2013-02-10 12:32:00,38.0,-99.9,29.76,ESE,123,7.0,15.0,-999,-99.99,,,-99.99,,2013-02-10 18:32:00,
2013-02-10 12:42:00,38.0,-99.9,29.76,ESE,123,7.0,15.0,-999,-99.99,,,-99.99,,2013-02-10 18:42:00,
2013-02-10 12:52:00,38.0,-99.9,29.74,SSE,160,6.0,15.0,-999,-99.99,,,-99.99,,2013-02-10 18:52:00,
2013-02-10 13:02:00,38.0,-99.9,29.74,SSE,160,6.0,15.0,-999,-99.99,,,-99.99,,2013-02-10 19:02:00,
2013-02-10 13:12:00,39.0,-99.9,29.71,SSE,153,5.0,17.0,-999,-99.99,,,-99.99,,2013-02-10 19:12:00,
2013-02-10 13:22:00,39.0,-99.9,29.71,SSE,153,5.0,17.0,-999,-99.99,,,-99.99,,2013-02-10 19:22:00,
2013-02-10 13:32:00,39.0,-99.9,29.70,SSE,154,6.0,15.0,-999,-99.99,,,-99.99,,2013-02-10 19:32:00,
2013-02-10 13:43:00,39.0,-99.9,29.70,SSE,150,9.0,14.0,-999,-99.99,,,-99.99,,2013-02-10 19:43:00,
2013-02-10 13:52:00,39.0,-99.9,29.70,SSE,150,9.0,14.0,-999,-99.99,,,-99.99,,2013-02-10 19:52:00,
2013-02-10 14:02:00,39.0,-99.9,29.70,SSE,150,9.0,14.0,-999,-99.99,,,-99.99,,2013-02-10 20:02:00,
2013-02-10 14:11:00,39.0,-99.9,29.68,SSE,153,9.0,22.0,-999,-99.99,,,-99.99,,2013-02-10 20:11:00,
2013-02-10 14:22:00,39.0,-99.9,29.68,SSE,153,9.0,22.0,-999,-99.99,,,-99.99,,2013-02-10 20:22:00,
2013-02-10 14:32:00,38.0,-99.9,29.65,SSE,149,8.0,18.0,-999,-99.99,,,-99.99,,2013-02-10 20:32:00,
2013-02-10 14:42:00,39.0,-99.9,29.62,SSE,153,9.0,29.0,-999,-99.99,,,-99.99,,2013-02-10 20:42:00,
2013-02-10 14:52:00,39.0,-99.9,29.62,SSE,153,9.0,29.0,-999,-99.99,,,-99.99,,2013-02-10 20:52:00,
2013-02-10 15:03:00,39.0,-99.9,29.61,SE,138,13.0,24.0,-999,-99.99,,,-99.99,,2013-02-10 21:03:00,
2013-02-10 15:12:00,40.0,-99.9,29.61,SSE,155,11.0,24.0,-999,-99.99,,,-99.99,,2013-02-10 21:12:00,
2013-02-10 15:22:00,40.0,-99.9,29.61,SSE,155,11.0,24.0,-999,-99.99,,,-99.99,,2013-02-10 21:22:00,
2013-02-10 15:32:00,40.0,-99.9,29.61,SSE,155,8.0,21.0,-999,-99.99,,,-99.99,,2013-02-10 21:32:00,
2013-02-10 15:42:00,40.0,-99.9,29.59,SSE,149,8.0,22.0,-999,-99.99,,,-99.99,,2013-02-10 21:42:00,
2013-02-10 15:52:00,40.0,-99.9,29.59,SSE,149,8.0,22.0,-999,-99.99,,,-99.99,,2013-02-10 21:52:00,
2013-02-10 16:02:00,41.0,-99.9,29.59,SE,131,8.0,20.0,-999,-99.99,,,-99.99,,2013-02-10 22:02:00,
2013-02-10 16:12:00,41.0,-99.9,29.59,SSE,168,11.0,21.0,-999,-99.99,,,-99.99,,2013-02-10 22:12:00,
2013-02-10 16:22:00,41.0,-99.9,29.59,SSE,168,11.0,21.0,-999,-99.99,,,-99.99,,2013-02-10 22:22:00,
2013-02-10 16:32:00,41.0,-99.9,29.58,SSE,147,11.0,19.0,-999,-99.99,,,-99.99,,2013-02-10 22:32:00,
2013-02-10 16:42:00,41.0,-99.9,29.57,SSE,156,7.0,22.0,-999,-99.99,,,-99.99,,2013-02-10 22:42:00,
2013-02-10 16:53:00,41.0,-99.9,29.57,SSE,156,7.0,22.0,-999,-99.99,,,-99.99,,2013-02-10 22:53:00,
2013-02-10 17:02:00,41.0,-99.9,29.57,SSE,156,7.0,22.0,-999,-99.99,,,-99.99,,2013-02-10 23:02:00,
2013-02-10 17:12:00,41.0,-99.9,29.57,SSE,156,7.0,22.0,-999,-99.99,,,-99.99,,2013-02-10 23:12:00,
2013-02-10 17:22:00,42.0,-99.9,29.57,South,173,9.0,16.0,-999,-99.99,,,-99.99,,2013-02-10 23:22:00,
2013-02-10 17:32:00,42.0,-99.9,29.56,South,170,7.0,20.0,-999,-99.99,,,-99.99,,2013-02-10 23:32:00,
2013-02-10 17:42:00,42.0,-99.9,29.56,SSE,166,5.0,19.0,-999,-99.99,,,-99.99,,2013-02-10 23:42:00,
2013-02-10 17:52:00,42.0,-99.9,29.56,SSE,166,5.0,19.0,-999,-99.99,,,-99.99,,2013-02-10 23:52:00,
2013-02-10 18:02:00,42.0,-99.9,29.57,SSE,150,6.0,13.0,-999,-99.99,,,-99.99,,2013-02-11 00:02:00,
2013-02-10 18:11:00,42.0,-99.9,29.57,SE,135,7.0,17.0,-999,-99.99,,,-99.99,,2013-02-11 00:11:00,
2013-02-10 18:22:00,42.0,-99.9,29.57,SE,135,7.0,17.0,-999,-99.99,,,-99.99,,2013-02-11 00:22:00,
2013-02-10 18:32:00,42.0,-99.9,29.57,SSE,160,12.0,24.0,-999,-99.99,,,-99.99,,2013-02-11 00:32:00,
2013-02-10 18:42:00,41.0,-99.9,29.57,SSE,151,5.0,12.0,-999,-99.99,,,-99.99,,2013-02-11 00:42:00,
2013-02-10 18:52:00,41.0,-99.9,29.57,SSE,151,5.0,12.0,-999,-99.99,,,-99.99,,2013-02-11 00:52:00,
2013-02-10 19:02:00,41.0,-99.9,29.57,SSE,151,5.0,12.0,-999,-99.99,,,-99.99,,2013-02-11 01:02:00,
2013-02-10 19:11:00,41.0,-99.9,29.57,SSE,151,5.0,12.0,-999,-99.99,,,-99.99,,2013-02-11 01:11:00,
2013-02-10 19:21:00,42.0,-99.9,29.57,SSE,155,5.0,16.0,-999,-99.99,,,-99.99,,2013-02-11 01:21:00,
2013-02-10 19:32:00,43.0,-99.9,29.57,South,172,7.0,13.0,-999,-99.99,,,-99.99,,2013-02-11 01:32:00,
2013-02-10 19:42:00,43.0,-99.9,29.56,SSE,156,4.0,13.0,-999,-99.99,,,-99.99,,2013-02-11 01:42:00,
2013-02-10 19:52:00,43.0,-99.9,29.56,SSE,156,4.0,13.0,-999,-99.99,,,-99.99,,2013-02-11 01:52:00,
2013-02-10 20:01:00,44.0,-99.9,29.55,SSE,157,7.0,13.0,-999,-99.99,,,-99.99,,2013-02-11 02:01:00,
2013-02-10 20:11:00,44.0,-99.9,29.55,South,179,6.0,15.0,-999,-99.99,,,-99.99,,2013-02-11 02:11:00,
2013-02-10 20:21:00,44.0,-99.9,29.55,South,179,6.0,15.0,-999,-99.99,,,-99.99,,2013-02-11 02:21:00,
2013-02-10 20:32:00,44.0,-99.9,29.55,South,179,6.0,15.0,-999,-99.99,,,-99.99,,2013-02-11 02:32:00,
2013-02-10 20:42:00,45.0,-99.9,29.54,South,176,3.0,14.0,-999,-99.99,,,-99.99,,2013-02-11 02:42:00,
2013-02-10 20:52:00,45.0,-99.9,29.54,South,176,3.0,14.0,-999,-99.99,,,-99.99,,2013-02-11 02:52:00,
2013-02-10 21:02:00,46.0,-99.9,29.54,South,181,4.0,12.0,-999,-99.99,,,-99.99,,2013-02-11 03:02:00,
2013-02-10 21:11:00,46.0,-99.9,29.53,South,174,5.0,13.0,-999,-99.99,,,-99.99,,2013-02-11 03:11:00,
2013-02-10 21:22:00,46.0,-99.9,29.53,South,174,5.0,13.0,-999,-99.99,,,-99.99,,2013-02-11 03:22:00,
2013-02-10 21:32:00,46.0,-99.9,29.52,South,180,4.0,13.0,-999,-99.99,,,-99.99,,2013-02-11 03:32:00,
2013-02-10 21:42:00,46.0,-99.9,29.52,SSW,195,7.0,13.0,-999,-99.99,,,-99.99,,2013-02-11 03:42:00,
2013-02-10 21:52:00,46.0,-99.9,29.52,SSW,195,7.0,13.0,-999,-99.99,,,-99.99,,2013-02-11 03:52:00,
2013-02-10 22:02:00,46.0,-99.9,29.51,South,171,7.0,14.0,-999,-99.99,,,-99.99,,2013-02-11 04:02:00,
2013-02-10 22:11:00,46.0,-99.9,29.51,South,171,7.0,14.0,-999,-99.99,,,-99.99,,2013-02-11 04:11:00,
2013-02-10 22:22:00,46.0,-99.9,29.51,South,171,7.0,14.0,-999,-99.99,,,-99.99,,2013-02-11 04:22:00,
2013-02-10 22:32:00,46.0,-99.9,29.51,South,190,5.0,10.0,-999,-99.99,,,-99.99,,2013-02-11 04:32:00,
2013-02-10 22:42:00,47.0,-99.9,29.51,SSW,193,4.0,14.0,-999,-99.99,,,-99.99,,2013-02-11 04:42:00,
2013-02-10 22:52:00,47.0,-99.9,29.51,SSW,193,4.0,14.0,-999,-99.99,,,-99.99,,2013-02-11 04:52:00,
2013-02-10 23:02:00,47.0,-99.9,29.51,SSW,193,4.0,14.0,-999,-99.99,,,-99.99,,2013-02-11 05:02:00,
2013-02-10 23:12:00,47.0,-99.9,29.51,WSW,245,4.0,13.0,-999,-99.99,,,-99.99,,2013-02-11 05:12:00,
2013-02-10 23:22:00,47.0,-99.9,29.51,WSW,245,4.0,13.0,-999,-99.99,,,-99.99,,2013-02-11 05:22:00,
2013-02-10 23:32:00,47.0,-99.9,29.52,SSW,195,4.0,12.0,-999,-99.99,,,-99.99,,2013-02-11 05:32:00,
2013-02-10 23:42:00,48.0,-99.9,29.51,WSW,244,7.0,18.0,-999,-99.99,,,-99.99,,2013-02-11 05:42:00,
2013-02-10 23:53:00,48.0,-99.9,29.51,WSW,244,7.0,18.0,-999,-99.99,,,-99.99,,2013-02-11 05:53:00,